GW1938 Weather Reports


time (UTC)temp
F
wind
direction
speed
knots
gust
knots
rain 1hr
in
rain 24hr
in
rain mn
in
humidity
%
barometer
mb
20260904030105 71 109 4.3 7.0 0.00 0.00 0.00 48 1017.3
20260904024055 70 154 2.6 4.3 0.00 0.00 0.00 44 1017.8
20260904023553 70 243 2.6 4.3 0.00 0.00 0.00 40 1017.9
20260904023052 71 255 1.7 4.3 0.00 0.00 0.00 37 1018.0
20260904022551 70 248 1.7 3.5 0.00 0.00 0.00 38 1018.3
20260904022050 70 169 2.6 4.3 0.00 0.00 0.00 42 1018.4
20260904021549 69 196 1.7 4.3 0.00 0.00 0.00 43 1018.4
20260904021048 69 253 2.6 4.3 0.00 0.00 0.00 40 1018.4
20260904020547 69 247 3.5 5.2 0.00 0.00 0.00 40 1018.3
20260904015542 69 276 2.6 5.2 0.00 0.00 0.00 46 1018.5
20260904015041 69 284 2.6 5.2 0.00 0.00 0.00 41 1018.6
20260904014512 69 310 1.7 4.3 0.00 0.00 0.00 44 1018.6
20260904014011 68 324 2.6 6.1 0.00 0.00 0.00 47 1018.6
20260904013007 70 319 4.3 6.1 0.00 0.00 0.00 45 1018.8
20260904012506 70 315 6.1 7.0 0.00 0.00 0.00 44 1018.9
20260904011501 68 324 3.5 5.2 0.00 0.00 0.00 47 1019.1
20260904011000 71 318 5.2 7.8 0.00 0.00 0.00 47 1019.2
20260904010458 70 312 5.2 7.0 0.00 0.00 0.00 47 1019.3
20260904005957 69 312 5.2 7.8 0.00 0.00 0.00 45 1019.4
20260904005456 70 313 6.1 7.8 0.00 0.00 0.00 44 1019.6
20260904003948 69 319 4.3 7.8 0.00 0.00 0.00 47 1019.8
20260904003447 69 314 6.1 8.7 0.00 0.00 0.00 45 1019.8
20260904002946 68 315 5.2 8.7 0.00 0.00 0.00 47 1019.9
20260904002445 67 318 2.6 5.2 0.00 0.00 0.00 44 1020.0
20260904001944 66 292 3.5 8.7 0.00 0.00 0.00 50 1019.9
20260904001444 66 295 2.6 7.0 0.00 0.00 0.00 45 1019.8
20260904000943 66 315 1.7 4.3 0.00 0.00 0.00 46 1020.0
20260904000442 66 292 2.6 6.1 0.00 0.00 0.00 48 1020.1
20260903235940 66 306 2.6 7.8 0.00 0.00 0.00 47 1020.0
20260903234935 67 315 5.2 9.6 0.00 0.00 0.00 51 1020.0
20260903234434 66 308 4.3 7.0 0.00 0.00 0.00 51 1020.2
20260903233429 65 317 3.5 7.0 0.00 0.00 0.00 53 1020.3
20260903232928 65 315 3.5 7.8 0.00 0.00 0.00 54 1020.1
20260903231923 64 291 2.6 5.2 0.00 0.00 0.00 58 1020.3
20260903231423 63 283 3.5 7.8 0.00 0.00 0.00 57 1020.4
20260903230921 63 295 3.5 7.8 0.00 0.00 0.00 57 1020.3
20260903230420 63 300 3.5 10.4 0.00 0.00 0.00 59 1020.3
20260903225350 62 299 2.6 7.0 0.00 0.00 0.00 58 1020.4
20260903224848 62 300 3.5 6.1 0.00 0.00 0.00 58 1020.3
20260903223839 62 305 2.6 7.0 0.00 0.00 0.00 59 1020.3
20260903223336 62 307 3.5 8.7 0.00 0.00 0.00 59 1020.4
20260903222331 62 322 2.6 6.1 0.00 0.00 0.00 62 1020.3
20260903221830 62 317 4.3 7.0 0.00 0.00 0.00 62 1020.3
20260903221328 62 315 3.5 8.7 0.00 0.00 0.00 63 1020.2
20260903220825 62 320 4.3 7.0 0.00 0.00 0.00 65 1020.2
20260903220324 62 321 4.3 7.0 0.00 0.00 0.00 65 1020.2
20260903215821 62 305 2.6 5.2 0.00 0.00 0.00 64 1020.3
20260903215319 62 300 2.6 6.1 0.00 0.00 0.00 62 1020.2
20260903214816 61 286 2.6 5.2 0.00 0.00 0.00 61 1020.0
20260903214315 61 261 3.5 5.2 0.00 0.00 0.00 60 1020.0
20260903213812 60 254 4.3 7.0 0.00 0.00 0.00 59 1019.9
20260903213311 60 251 5.2 7.8 0.00 0.00 0.00 59 1019.7
20260903212809 60 245 4.3 7.8 0.00 0.00 0.00 57 1019.6
20260903212307 60 237 4.3 7.8 0.00 0.00 0.00 57 1019.6
20260903211803 60 238 5.2 9.6 0.00 0.00 0.00 55 1019.5
20260903211301 61 242 5.2 11.3 0.00 0.00 0.00 54 1019.4
20260903210256 61 224 4.3 6.1 0.00 0.00 0.00 51 1019.5
20260903205753 61 235 4.3 7.0 0.00 0.00 0.00 53 1019.4
20260903205249 60 253 3.5 7.0 0.00 0.00 0.00 52 1019.2
20260903204747 60 234 2.6 6.1 0.00 0.00 0.00 51 1019.3
20260903204246 60 220 5.2 8.7 0.00 0.00 0.00 51 1019.3
20260903203743 60 232 7.0 11.3 0.00 0.00 0.00 53 1019.0
20260903203242 59 230 6.1 11.3 0.00 0.00 0.00 52 1018.8
20260903202738 59 222 6.1 10.4 0.00 0.00 0.00 52 1018.9
20260903202236 59 227 7.0 11.3 0.00 0.00 0.00 53 1019.0
20260903201735 59 231 7.0 10.4 0.00 0.00 0.00 58 1018.8
20260903201230 59 236 7.0 9.6 0.00 0.00 0.00 57 1018.8
20260903200729 59 234 5.2 8.7 0.00 0.00 0.00 59 1018.9
20260903200228 59 231 5.2 9.6 0.00 0.00 0.00 56 1018.9
20260903195221 59 233 5.2 9.6 0.00 0.00 0.00 56 1018.8
20260903194720 59 230 6.1 9.6 0.00 0.00 0.00 56 1018.8
20260903193714 60 236 7.0 11.3 0.00 0.00 0.00 54 1018.7
20260903193213 60 233 7.0 11.3 0.00 0.00 0.00 54 1018.7
20260903192207 60 230 6.1 10.4 0.00 0.00 0.00 57 1018.6
20260903191706 60 232 7.8 11.3 0.00 0.00 0.00 56 1018.5
20260903191203 59 235 7.0 10.4 0.00 0.00 0.00 58 1018.5
20260903190156 60 231 5.2 9.6 0.00 0.00 0.00 57 1018.7
20260903185653 60 234 6.1 9.6 0.00 0.00 0.00 57 1018.6
20260903185152 60 237 6.1 9.6 0.00 0.00 0.00 59 1018.4
20260903184650 60 230 6.1 9.6 0.00 0.00 0.00 57 1018.4
20260903184149 60 217 6.1 8.7 0.00 0.00 0.00 55 1018.6
20260903183144 61 229 7.0 12.2 0.00 0.00 0.00 54 1018.4
20260903182137 61 216 7.0 11.3 0.00 0.00 0.00 53 1018.3
20260903181634 61 218 7.0 11.3 0.00 0.00 0.00 52 1018.2
20260903181132 61 219 7.8 13.9 0.00 0.00 0.00 53 1018.1
20260903180630 61 218 7.8 12.2 0.00 0.00 0.00 54 1018.1
20260903180127 61 217 7.0 11.3 0.00 0.00 0.00 54 1018.0
20260903175122 61 218 7.8 13.0 0.00 0.00 0.00 53 1017.9
20260903174617 61 218 8.7 13.9 0.00 0.00 0.00 52 1017.9
20260903174116 61 220 7.8 13.9 0.00 0.00 0.00 53 1017.8
20260903172607 61 219 7.0 10.4 0.00 0.00 0.00 57 1017.9
20260903172106 61 216 7.0 11.3 0.00 0.00 0.00 58 1017.8
20260903171604 61 222 6.1 10.4 0.00 0.00 0.00 58 1017.8
20260903171101 61 230 6.1 12.2 0.00 0.00 0.00 59 1017.7
20260903170600 61 239 3.5 8.7 0.00 0.00 0.00 60 1017.6
20260903165555 61 219 2.6 5.2 0.00 0.00 0.00 60 1017.6
20260903165052 61 231 4.3 7.8 0.00 0.00 0.00 60 1017.5
20260903164551 61 227 5.2 10.4 0.00 0.00 0.00 58 1017.4
20260903163546 61 232 5.2 8.7 0.00 0.00 0.00 59 1017.5
20260903163045 61 229 7.0 10.4 0.00 0.00 0.00 58 1017.6
20260903162038 61 232 6.1 9.6 0.00 0.00 0.00 59 1017.6
20260903161536 61 239 6.1 9.6 0.00 0.00 0.00 58 1017.6
20260903161035 62 237 7.0 10.4 0.00 0.00 0.00 58 1017.6
20260903160534 62 231 7.0 10.4 0.00 0.00 0.00 56 1017.5
20260903160033 62 236 7.0 10.4 0.00 0.00 0.00 56 1017.4
20260903154523 63 231 7.8 11.3 0.00 0.00 0.00 56 1017.4
20260903154023 63 237 7.8 13.0 0.00 0.00 0.00 56 1017.4
20260903153520 63 239 7.8 13.0 0.00 0.00 0.00 56 1017.3
20260903153019 63 236 7.0 12.2 0.00 0.00 0.00 55 1017.4
20260903152518 64 235 7.0 11.3 0.00 0.00 0.00 53 1017.4
20260903152016 64 235 7.8 14.8 0.00 0.00 0.00 54 1017.5
20260903151514 64 237 7.0 12.2 0.00 0.00 0.00 54 1017.5
20260903151013 64 239 7.0 12.2 0.00 0.00 0.00 56 1017.3
20260903150512 64 244 7.8 12.2 0.00 0.00 0.00 56 1017.3
20260903150010 64 248 8.7 13.9 0.00 0.00 0.00 55 1017.3
20260903145508 64 250 10.4 16.5 0.00 0.00 0.00 54 1017.1
20260903145007 64 244 7.8 14.8 0.00 0.00 0.00 54 1017.0
20260903143458 65 237 7.0 13.9 0.00 0.00 0.00 53 1017.1
20260903142958 65 239 7.8 13.9 0.00 0.00 0.00 53 1017.1
20260903142457 65 238 8.7 14.8 0.00 0.00 0.00 52 1017.0
20260903141450 65 230 7.0 11.3 0.00 0.00 0.00 51 1016.9
20260903140949 65 235 7.8 15.6 0.00 0.00 0.00 51 1016.9
20260903140446 66 233 8.7 14.8 0.00 0.00 0.00 51 1016.8
20260903135945 66 236 9.6 15.6 0.00 0.00 0.00 51 1016.8
20260903135444 66 239 9.6 16.5 0.00 0.00 0.00 53 1016.8
20260903134941 66 241 9.6 15.6 0.00 0.00 0.00 53 1016.7
20260903134440 66 237 10.4 18.2 0.00 0.00 0.00 51 1016.6
20260903133937 66 238 9.6 18.2 0.00 0.00 0.00 50 1016.4
20260903133435 66 243 10.4 16.5 0.00 0.00 0.00 55 1016.3
20260903132932 66 245 10.4 17.4 0.00 0.00 0.00 53 1016.2
20260903132430 66 243 10.4 18.2 0.00 0.00 0.00 54 1016.2
20260903131424 67 237 9.6 14.8 0.00 0.00 0.00 49 1016.2
20260903130921 67 237 8.7 15.6 0.00 0.00 0.00 50 1016.3
20260903130419 66 238 7.8 12.2 0.00 0.00 0.00 52 1016.2
20260903125412 66 246 8.7 13.0 0.00 0.00 0.00 55 1016.0
20260903124909 67 253 8.7 13.9 0.00 0.00 0.00 54 1015.9
20260903124406 66 255 8.7 11.3 0.00 0.00 0.00 56 1015.9
20260903123359 66 263 7.0 10.4 0.00 0.00 0.00 64 1015.9
20260903122856 65 267 6.1 8.7 0.00 0.00 0.00 68 1015.8
20260903122354 65 289 4.3 7.8 0.00 0.00 0.00 70 1015.7
20260903121852 66 290 4.3 7.0 0.00 0.00 0.00 70 1015.7
20260903121350 66 273 5.2 7.8 0.00 0.00 0.00 68 1015.7
20260903120845 66 268 5.2 7.8 0.00 0.00 0.00 69 1015.8
20260903120343 66 271 6.1 7.8 0.00 0.00 0.00 61 1015.7
20260903115336 67 296 4.3 6.1 0.00 0.00 0.00 58 1015.5
20260903114833 67 302 4.3 7.8 0.00 0.00 0.00 55 1015.5
20260903114330 67 302 5.2 7.0 0.00 0.00 0.00 55 1015.5
20260903113828 66 307 5.2 7.8 0.00 0.00 0.00 58 1015.6
20260903113325 67 309 6.1 9.6 0.00 0.00 0.00 57 1015.6
20260903112822 67 310 6.1 8.7 0.00 0.00 0.00 60 1015.4
20260903112319 67 302 4.3 10.4 0.00 0.00 0.00 62 1015.3
20260903111313 68 281 6.1 10.4 0.00 0.00 0.00 58 1015.0
20260903110812 67 294 4.3 9.6 0.00 0.00 0.00 59 1015.0
20260903110310 68 301 4.3 9.6 0.00 0.00 0.00 56 1015.1
20260903104801 68 292 5.2 9.6 0.00 0.00 0.00 57 1015.0
20260903103756 68 283 7.0 11.3 0.00 0.00 0.00 58 1014.7
20260903102750 68 262 7.0 10.4 0.00 0.00 0.00 58 1014.6
20260903102248 68 261 7.8 10.4 0.00 0.00 0.00 57 1014.6
20260903101242 68 266 6.1 8.7 0.00 0.00 0.00 60 1014.4
20260903100741 68 266 6.1 8.7 0.00 0.00 0.00 59 1014.3
20260903095734 68 263 7.0 9.6 0.00 0.00 0.00 61 1014.2
20260903095233 68 260 7.0 10.4 0.00 0.00 0.00 61 1014.0
20260903094227 68 268 7.0 12.2 0.00 0.00 0.00 62 1013.7
20260903093726 69 273 7.0 13.0 0.00 0.00 0.00 58 1013.6
20260903093225 69 273 7.8 12.2 0.00 0.00 0.00 57 1013.5
20260903090708 70 265 7.8 12.2 0.00 0.00 0.00 51 1013.1
20260903090206 70 270 7.8 12.2 0.00 0.00 0.00 54 1013.0
20260903085705 71 275 8.7 13.9 0.00 0.00 0.00 53 1012.9
20260903084700 72 284 7.8 13.9 0.00 0.00 0.00 45 1012.7
20260903084159 72 289 7.8 16.5 0.00 0.00 0.00 43 1012.7
20260903082648 72 307 7.8 13.9 0.00 0.00 0.00 45 1012.4
20260903082147 72 304 7.8 14.8 0.00 0.00 0.00 46 1012.3
20260903081141 71 303 7.8 13.0 0.00 0.00 0.00 47 1012.1
20260903080638 72 298 8.7 13.9 0.00 0.00 0.00 47 1012.0
20260903080133 72 294 7.0 10.4 0.00 0.00 0.00 47 1011.9
20260903075631 71 290 6.1 11.3 0.00 0.00 0.00 48 1011.7
20260903075129 72 285 7.0 12.2 0.00 0.00 0.00 51 1011.5
20260903074628 71 276 8.7 13.9 0.00 0.00 0.00 50 1011.4
20260903073623 73 287 7.0 13.9 0.00 0.00 0.00 43 1011.1
20260903073121 73 284 7.8 14.8 0.00 0.00 0.00 39 1011.0
20260903072618 74 301 5.2 10.4 0.00 0.00 0.00 44 1011.1
20260903072116 74 296 6.1 12.2 0.00 0.00 0.00 42 1011.0
20260903071614 74 306 7.8 13.0 0.00 0.00 0.00 40 1010.9
20260903070608 75 302 6.1 11.3 0.00 0.00 0.00 40 1010.8
20260903070103 76 310 7.8 14.8 0.00 0.00 0.00 38 1010.7
20260903065601 76 305 9.6 17.4 0.00 0.00 0.00 38 1010.6
20260903065100 76 306 12.2 19.1 0.00 0.00 0.00 36 1010.5
20260903064557 76 305 12.2 21.7 0.00 0.00 0.00 37 1010.3
20260903064056 76 304 9.6 14.8 0.00 0.00 0.00 40 1010.4
20260903063555 75 301 7.8 13.9 0.00 0.00 0.00 41 1010.3
20260903063054 76 301 7.0 11.3 0.00 0.00 0.00 42 1010.2
20260903062553 76 307 7.0 13.9 0.00 0.00 0.00 39 1010.1
20260903061046 77 305 10.4 18.2 0.00 0.00 0.00 36 1009.8
20260903060041 77 303 8.7 16.5 0.00 0.00 0.00 39 1009.7
20260903055538 78 306 8.7 18.2 0.00 0.00 0.00 36 1009.6
20260903055037 78 306 9.6 17.4 0.00 0.00 0.00 38 1009.6
20260903054534 77 295 10.4 19.1 0.00 0.00 0.00 39 1009.5
20260903054031 77 295 7.8 14.8 0.00 0.00 0.00 41 1009.6
20260903053527 76 292 7.0 14.8 0.00 0.00 0.00 42 1009.5
20260903053024 77 294 7.8 17.4 0.00 0.00 0.00 40 1009.4
20260903052523 76 288 7.8 14.8 0.00 0.00 0.00 43 1009.3
20260903051518 76 271 9.6 17.4 0.00 0.00 0.00 42 1009.3
20260903045507 77 275 10.4 16.5 0.00 0.00 0.00 41 1009.2
20260903045006 78 295 7.8 14.8 0.00 0.00 0.00 38 1009.1
20260903044503 77 281 10.4 16.5 0.00 0.00 0.00 43 1009.0
20260903044003 77 273 10.4 18.2 0.00 0.00 0.00 42 1009.0
20260903043500 77 284 9.6 17.4 0.00 0.00 0.00 40 1008.9
20260903042957 78 287 7.8 15.6 0.00 0.00 0.00 40 1008.8
20260903042456 80 306 8.7 15.6 0.00 0.00 0.00 35 1008.7
20260903041953 80 302 14.8 26.9 0.00 0.00 0.00 34 1008.6
20260903041450 80 305 13.9 22.6 0.00 0.00 0.00 34 1008.5
20260903040940 79 293 11.3 18.2 0.00 0.00 0.00 35 1008.6
20260903040439 77 286 9.6 15.6 0.00 0.00 0.00 40 1008.6
20260903035938 77 278 11.3 18.2 0.00 0.00 0.00 42 1008.6
20260903035434 77 285 9.6 17.4 0.00 0.00 0.00 42 1008.6
20260903034920 77 283 10.4 20.0 0.00 0.00 0.00 38 1008.4
20260903034419 78 291 9.6 19.1 0.00 0.00 0.00 40 1008.3
20260903033918 78 290 9.6 18.2 0.00 0.00 0.00 38 1008.3
20260903033416 78 294 9.6 17.4 0.00 0.00 0.00 41 1008.2
20260903032412 77 288 11.3 20.0 0.00 0.00 0.00 40 1008.2
20260903031904 79 292 12.2 23.5 0.00 0.00 0.00 36 1008.2
20260903031403 78 280 14.8 24.3 0.00 0.00 0.00 36 1008.2